When you browse on this site, cookies collect data to enhance your experience and personalize the content and advertising you see.
Visit our Privacy Policy to learn more. By continuing to use the site, you agree to this use of cookies and data.
EN

Hourly Weather Winsford

Today, 4 August, Tuesday

Time Temperature Precipitation Wind Pressure Humidity
00:00 +11°C° 0 mm 1 mps 759 mmHg 85%
01:00 +11°C° 0 mm 1 mps 758 mmHg 86%
02:00 +10°C° 0 mm 2 mps 758 mmHg 87%
03:00 +10°C° 0 mm 2 mps 758 mmHg 87%
04:00 +10°C° 0 mm 2 mps 758 mmHg 86%
05:00 +12°C° 0 mm 2 mps 757 mmHg 85%
06:00 +11°C° 0 mm 3 mps 757 mmHg 84%
07:00 +12°C° 0.1 mm 3 mps 757 mmHg 83%
08:00 +12°C° 0.1 mm 4 mps 757 mmHg 82%
09:00 +12°C° 0.1 mm 4 mps 757 mmHg 82%
10:00 +14°C° 0 mm 5 mps 756 mmHg 79%
11:00 +15°C° 0 mm 6 mps 755 mmHg 75%
12:00 +16°C° 0 mm 7 mps 755 mmHg 72%
13:00 +17°C° 0 mm 7 mps 754 mmHg 73%
14:00 +18°C° 0 mm 8 mps 754 mmHg 73%
15:00 +18°C° 0 mm 8 mps 753 mmHg 73%
16:00 +20°C° 0 mm 7 mps 753 mmHg 74%
17:00 +20°C° 0 mm 7 mps 752 mmHg 75%
18:00 +20°C° 0 mm 6 mps 752 mmHg 76%
19:00 +19°C° 0 mm 6 mps 752 mmHg 77%
20:00 +19°C° 0 mm 6 mps 752 mmHg 78%
21:00 +17°C° 0 mm 6 mps 752 mmHg 79%
22:00 +17°C° 0 mm 6 mps 752 mmHg 81%
23:00 +16°C° 0 mm 6 mps 752 mmHg 83%

Tomorrow, 5 August, Wednesday

Time Temperature Precipitation Wind Pressure Humidity
00:00 +16°C° 0 mm 5 mps 752 mmHg 85%
01:00 +16°C° 0.3 mm 5 mps 752 mmHg 86%
02:00 +16°C° 0.3 mm 5 mps 752 mmHg 86%
03:00 +16°C° 0.3 mm 5 mps 752 mmHg 87%
04:00 +16°C° 0.1 mm 5 mps 752 mmHg 87%
05:00 +16°C° 0.1 mm 6 mps 751 mmHg 87%
06:00 +16°C° 0.1 mm 6 mps 751 mmHg 87%
07:00 +17°C° 0 mm 6 mps 752 mmHg 83%
08:00 +19°C° 0 mm 6 mps 752 mmHg 79%
09:00 +21°C° 0 mm 7 mps 752 mmHg 76%
10:00 +21°C° 0 mm 7 mps 752 mmHg 72%
11:00 +22°C° 0 mm 7 mps 752 mmHg 69%
12:00 +23°C° 0 mm 7 mps 752 mmHg 66%
13:00 +23°C° 0 mm 7 mps 752 mmHg 67%
14:00 +23°C° 0 mm 6 mps 752 mmHg 67%
15:00 +23°C° 0 mm 6 mps 752 mmHg 68%
16:00 +22°C° 0.4 mm 5 mps 752 mmHg 74%
17:00 +21°C° 0.4 mm 5 mps 752 mmHg 80%
18:00 +20°C° 0.4 mm 5 mps 752 mmHg 85%
19:00 +19°C° 0.2 mm 5 mps 753 mmHg 87%
20:00 +19°C° 0.2 mm 5 mps 753 mmHg 89%
21:00 +17°C° 0.2 mm 5 mps 754 mmHg 91%
22:00 +18°C° 0 mm 4 mps 754 mmHg 92%
23:00 +18°C° 0 mm 4 mps 754 mmHg 92%

Day after tomorrow, 6 August, Thursday

Time Temperature Precipitation Wind Pressure Humidity
00:00 +18°C° 0 mm 3 mps 754 mmHg 93%
01:00 +18°C° 0 mm 3 mps 754 mmHg 94%
02:00 +18°C° 0 mm 3 mps 755 mmHg 94%
03:00 +17°C° 0 mm 3 mps 755 mmHg 95%
04:00 +17°C° 0 mm 3 mps 755 mmHg 94%
05:00 +17°C° 0 mm 2 mps 755 mmHg 94%
06:00 +17°C° 0 mm 2 mps 756 mmHg 93%
07:00 +19°C° 0 mm 3 mps 756 mmHg 88%
08:00 +20°C° 0 mm 3 mps 756 mmHg 83%
09:00 +21°C° 0 mm 3 mps 757 mmHg 77%
10:00 +22°C° 0.1 mm 4 mps 757 mmHg 77%
11:00 +22°C° 0.1 mm 4 mps 757 mmHg 77%
12:00 +22°C° 0.1 mm 4 mps 757 mmHg 76%
13:00 +23°C° 0.1 mm 4 mps 757 mmHg 74%
14:00 +25°C° 0.1 mm 4 mps 757 mmHg 72%
15:00 +26°C° 0.1 mm 4 mps 757 mmHg 70%
16:00 +25°C° 0.2 mm 4 mps 757 mmHg 73%
17:00 +25°C° 0.2 mm 3 mps 757 mmHg 76%
18:00 +24°C° 0.2 mm 3 mps 757 mmHg 79%
19:00 +22°C° 0.1 mm 3 mps 757 mmHg 83%
20:00 +21°C° 0.1 mm 2 mps 757 mmHg 86%
21:00 +20°C° 0.1 mm 2 mps 758 mmHg 89%
22:00 +19°C° 0 mm 2 mps 758 mmHg 90%
23:00 +19°C° 0 mm 2 mps 758 mmHg 90%

7 August, Friday

Time Temperature Precipitation Wind Pressure Humidity
00:00 +19°C° 0 mm 1 mps 758 mmHg 91%
01:00 +18°C° 0 mm 1 mps 758 mmHg 91%
02:00 +18°C° 0 mm 1 mps 758 mmHg 92%
03:00 +18°C° 0 mm 1 mps 758 mmHg 92%
04:00 +17°C° 0 mm 2 mps 758 mmHg 92%
05:00 +17°C° 0 mm 2 mps 759 mmHg 91%
06:00 +17°C° 0 mm 2 mps 759 mmHg 91%
07:00 +19°C° 0 mm 2 mps 759 mmHg 86%
08:00 +20°C° 0 mm 2 mps 759 mmHg 81%
09:00 +23°C° 0 mm 2 mps 759 mmHg 76%
10:00 +24°C° 0 mm 3 mps 759 mmHg 72%
11:00 +25°C° 0 mm 3 mps 759 mmHg 68%
12:00 +26°C° 0 mm 3 mps 759 mmHg 64%
13:00 +27°C° 0.1 mm 4 mps 759 mmHg 63%
14:00 +27°C° 0.1 mm 4 mps 758 mmHg 62%
15:00 +27°C° 0.1 mm 4 mps 758 mmHg 61%
16:00 +27°C° 0 mm 4 mps 758 mmHg 64%
17:00 +26°C° 0 mm 3 mps 758 mmHg 68%
18:00 +25°C° 0 mm 3 mps 758 mmHg 72%
19:00 +24°C° 0 mm 3 mps 759 mmHg 76%
20:00 +21°C° 0 mm 2 mps 759 mmHg 80%
21:00 +20°C° 0 mm 2 mps 759 mmHg 84%
22:00 +19°C° 0 mm 2 mps 760 mmHg 84%
23:00 +18°C° 0 mm 2 mps 760 mmHg 84%

8 August, Saturday

Time Temperature Precipitation Wind Pressure Humidity
00:00 +17°C° 0 mm 2 mps 760 mmHg 85%
01:00 +17°C° 0 mm 2 mps 760 mmHg 86%
02:00 +16°C° 0 mm 2 mps 760 mmHg 88%
03:00 +16°C° 0 mm 1 mps 761 mmHg 89%
04:00 +16°C° 0 mm 2 mps 761 mmHg 89%
05:00 +17°C° 0 mm 3 mps 761 mmHg 88%
06:00 +17°C° 0 mm 3 mps 762 mmHg 88%
07:00 +17°C° 0 mm 4 mps 762 mmHg 81%
08:00 +18°C° 0 mm 4 mps 763 mmHg 75%
09:00 +19°C° 0 mm 5 mps 763 mmHg 69%
10:00 +19°C° 0 mm 5 mps 763 mmHg 64%
11:00 +20°C° 0 mm 5 mps 763 mmHg 59%
12:00 +21°C° 0 mm 5 mps 763 mmHg 55%
13:00 +21°C° 0 mm 5 mps 763 mmHg 55%
14:00 +21°C° 0 mm 5 mps 764 mmHg 55%
15:00 +21°C° 0 mm 5 mps 764 mmHg 55%
16:00 +21°C° 0 mm 5 mps 764 mmHg 59%
17:00 +20°C° 0 mm 4 mps 764 mmHg 63%
18:00 +19°C° 0 mm 4 mps 764 mmHg 67%
19:00 +19°C° 0 mm 4 mps 765 mmHg 69%
20:00 +18°C° 0 mm 3 mps 765 mmHg 71%
21:00 +17°C° 0 mm 3 mps 765 mmHg 73%
22:00 +17°C° 0 mm 3 mps 765 mmHg 72%
23:00 +16°C° 0 mm 3 mps 766 mmHg 71%

9 August, Sunday

Time Temperature Precipitation Wind Pressure Humidity
00:00 +16°C° 0 mm 2 mps 766 mmHg 70%
01:00 +15°C° 0 mm 2 mps 766 mmHg 71%
02:00 +14°C° 0 mm 2 mps 765 mmHg 72%
03:00 +13°C° 0 mm 2 mps 765 mmHg 73%
04:00 +13°C° 0 mm 2 mps 765 mmHg 74%
05:00 +13°C° 0 mm 2 mps 766 mmHg 75%
06:00 +13°C° 0 mm 2 mps 766 mmHg 76%
07:00 +15°C° 0 mm 2 mps 766 mmHg 71%
08:00 +16°C° 0 mm 3 mps 765 mmHg 65%
09:00 +18°C° 0 mm 3 mps 765 mmHg 60%
10:00 +19°C° 0 mm 4 mps 765 mmHg 57%
11:00 +20°C° 0 mm 4 mps 765 mmHg 54%
12:00 +21°C° 0 mm 4 mps 765 mmHg 51%
13:00 +21°C° 0 mm 4 mps 765 mmHg 51%
14:00 +21°C° 0 mm 4 mps 764 mmHg 51%
15:00 +22°C° 0 mm 4 mps 764 mmHg 51%
16:00 +21°C° 0 mm 4 mps 764 mmHg 55%
17:00 +20°C° 0 mm 4 mps 764 mmHg 59%
18:00 +19°C° 0 mm 3 mps 764 mmHg 63%
19:00 +18°C° 0 mm 3 mps 764 mmHg 67%
20:00 +16°C° 0 mm 3 mps 764 mmHg 70%
21:00 +13°C° 0 mm 3 mps 764 mmHg 74%
22:00 +13°C° 0 mm 3 mps 764 mmHg 77%
23:00 +12°C° 0 mm 3 mps 764 mmHg 81%
Show more